Location: Aalen
(48.8330°N, 10.1000°E)
Time: 01:18:40
(UTC+02:00)

Transit 4A - Pass Details

Date: 04 August 2021
Orbit: 870 x 974 km, 66.8° (Epoch: 26 September)

Event Time Altitude Azimuth Distance (km) Brightness Sun altitude
Rises 08:10:26 0° 325° (NW) 3,472 10.6 20.1°
Reaches altitude 10° 08:13:00 10° 331° (NNW) 2,537 10.0 20.5°
Maximum altitude 08:18:40 49° 46° (NE) 1,139 9.3 21.5°
Drops below altitude 10° 08:24:25 10° 121° (ESE) 2,573 11.4 22.4°
Sets 08:27:02 0° 127° (SE) 3,526 11.8 22.8°
